sat.trackr.live / text

‹ back to catalog

STARLINK-11228 [DTC]

NORAD 60398 · 2024-141A

PAYLOAD ACTIVE UNKNOWN

§ Identity

Operator
Country
US
Launch date
2024-08-10
Launch site
AFETR
Launch vehicle
Mass (kg)
RCS (m²)

Purposes: comms

External: N2YO · Heavens-Above · Gunter

§ Orbital elements

Epoch: 2026-09-21T22:00:03.000096Z

Period
91.13 min
Inclination
53.1595°
Eccentricity
0.0001103
Mean motion
15.80082127 rev/d
Perigee alt
329.5 km
Apogee alt
330.9 km
Semi-major
6,708.3 km
B*
6.4713e-3
RAAN
198.7331°
Arg perigee
89.7049°
Mean anomaly
331.6873°
Rev number
570

§ Raw data

STARLINK-11228 [DTC]1 60398U 24141A   26264.91670139  .01384907  00000+0  64713-2 0  99982 60398  53.1595 198.7331 0001103  89.7049 331.6873 15.80082127  5707

JSON: /api/v1/satellites/60398 · /tle

For live sub-satellite position, see the globe view (requires WebGL).

§ Visibility from observer

Set your observer location to see the next 7 days of passes ≥ 10°. The values pass through the URL so the page stays shareable.

No JS? Fill the form by hand. The geolocation button needs JavaScript.